Погода в Ключах

Россия / Омская область     55°09′06″N   73°13′03″E
темп.,
°C
ветер,
м/с
пор.,
м/с
влажн.,
%
обл.,
%
осадки,
мм/ч
давл.,
гПа
погр.,
м
17 мая, вт
вт1700:00+16зюз355394 0.1 100288
03:00+15ю4136494 0.0 1001266
06:00+16юз6126267 0.1 1002610
09:00+19зюз814410 0.0 10011687
12:00+22зюз10143390 0.0 10012957
15:00+23зюз101529100 0.0 10023516
18:00+22зюз71231100 0.0 10022784
21:00+16з35515 0.0 100467
18 мая, ср
ср1800:00+13зюз4105242 0.0 1006187
03:00+11зюз33635 0.0 100736
06:00+11юз346528 0.0 100977
09:00+18ююз4644100 0.0 1009698
12:00+21ююз4536100 0.0 10092101
15:00+22ююз4628100 0.0 10072796
18:00+18ю7954100 0.0 1007809
21:00+13ю4684100 0.6 1007338
19 мая, чт
чт1900:00+12ю239499 6.1 1006245
03:00+12юз249259 0.2 1004343
06:00+11ююз3696100 0.2 1002197
09:00+14ююз7976100 0.5 1001912
12:00+12юз81375100 6.1 10011518
15:00+11зюз8157582 0.9 10021377
18:00+12зюз91577100 2.6 10041386
21:00+13з81566100 0.3 1006814
20 мая, пт
пт2000:00+11зюз715693 0.3 1008545
03:00+10зюз614765 0.0 1009402
06:00+9зюз61378100 0.0 1011605
09:00+12зюз5955100 0.0 1012718
12:00+18юз7104196 0.0 10112145
15:00+18ююз61047100 0.0 10091549
18:00+13юз41085100 1.3 1008574
21:00+13ю4783100 1.3 1007197
21 мая, сб
сб2100:00+14вюв4878100 1.3 1003126
03:00+16ю82057100 0.0 999490
06:00+16ю717565 0.0 999435
09:00+20ююз710486 0.0 998549
12:00+25ююз6836100 0.0 9981219
15:00+27ююз583134 0.0 9951977
18:00+26ююз0437100 0.0 992926
21:00+18сз71073100 0.0 991267